TimePST,TemperatureF,Dew PointF,Humidity,Sea Level PressureIn,VisibilityMPH,Wind Direction,Wind SpeedMPH,Gust SpeedMPH,PrecipitationIn,Events,Conditions,WindDirDegrees,DateUTC
12:56 AM,30.9,17.1,57,30.61,10.0,SE,12.7,-,N/A,,Clear,130,2013-01-17 08:56:00
1:56 AM,30.0,17.1,59,30.60,10.0,SE,8.1,-,N/A,,Clear,130,2013-01-17 09:56:00
2:56 AM,28.9,16.0,58,30.60,10.0,Variable,3.5,-,N/A,,Clear,0,2013-01-17 10:56:00
3:56 AM,28.9,16.0,58,30.59,10.0,SSE,12.7,-,N/A,,Clear,150,2013-01-17 11:56:00
4:56 AM,28.9,16.0,58,30.59,10.0,SE,11.5,18.4,N/A,,Clear,140,2013-01-17 12:56:00
5:56 AM,28.9,16.0,58,30.60,10.0,SE,19.6,23.0,N/A,,Clear,140,2013-01-17 13:56:00
6:56 AM,28.9,16.0,58,30.60,10.0,SSE,16.1,-,N/A,,Clear,150,2013-01-17 14:56:00
7:56 AM,28.9,15.1,56,30.61,10.0,SSE,16.1,24.2,N/A,,Clear,150,2013-01-17 15:56:00
8:56 AM,30.9,16.0,54,30.62,10.0,SE,19.6,25.3,N/A,,Clear,140,2013-01-17 16:56:00
9:56 AM,32.0,17.1,54,30.61,10.0,SSE,18.4,-,N/A,,Clear,150,2013-01-17 17:56:00
10:56 AM,34.0,18.0,52,30.58,10.0,SSE,20.7,26.5,N/A,,Clear,150,2013-01-17 18:56:00
11:56 AM,35.1,19.0,52,30.55,10.0,SSE,21.9,-,N/A,,Clear,150,2013-01-17 19:56:00
12:39 PM,33.8,21.2,60,30.49,10.0,East,11.5,23.0,N/A,,Clear,90,2013-01-17 20:39:00
12:56 PM,37.0,19.0,48,30.53,10.0,SSE,21.9,26.5,N/A,,Clear,150,2013-01-17 20:56:00
1:56 PM,37.9,19.9,48,30.50,10.0,SSE,13.8,-,N/A,,Clear,150,2013-01-17 21:56:00
2:56 PM,37.9,19.9,48,30.48,10.0,SSE,15.0,-,N/A,,Clear,150,2013-01-17 22:56:00
3:56 PM,36.0,21.9,57,30.47,10.0,ESE,9.2,18.4,N/A,,Clear,120,2013-01-17 23:56:00
4:56 PM,33.1,21.0,61,30.49,10.0,SSE,6.9,-,N/A,,Clear,160,2013-01-18 00:56:00
5:56 PM,34.0,19.9,56,30.47,10.0,Calm,Calm,-,N/A,,Clear,0,2013-01-18 01:56:00
6:56 PM,34.0,19.0,54,30.46,10.0,Calm,Calm,-,N/A,,Clear,0,2013-01-18 02:56:00
7:56 PM,34.0,19.0,54,30.45,10.0,Calm,Calm,-,N/A,,Clear,0,2013-01-18 03:56:00
8:56 PM,32.0,19.0,59,30.45,10.0,Calm,Calm,-,N/A,,Clear,0,2013-01-18 04:56:00
9:56 PM,34.0,18.0,52,30.43,10.0,South,12.7,17.3,N/A,,Clear,190,2013-01-18 05:56:00
10:56 PM,34.0,18.0,52,30.42,10.0,South,10.4,17.3,N/A,,Clear,180,2013-01-18 06:56:00
11:56 PM,33.1,18.0,54,30.42,10.0,SSE,18.4,25.3,N/A,,Clear,150,2013-01-18 07:56:00